contact:dominique.lefevre@mio.osupytheas.fr, maurice.libes@osupytheas.fr, didier.mallarino@osupytheas.fr
Project:EMSO http://www.emso-fr.org/EMSO-France
Depth: 2436.0 m
Title:EMSO Ligure Ouest : Data MII capteur MICROCAT
DateTime_Computer,Latitude,Longitude,Temperature,Conductivity,Pressure,DateTime_Instrument
DateTime_Computer,Latitude,Longitude,degC,S m-1,dbar,DateTime_Instrument
2017-10-07T00:00:58Z,42.805,6.029,13.2935,4.59964,2471.821,2017-10-07T02:02:22Z
2017-10-07T00:02:33Z,42.805,6.029,13.2938,4.59962,2471.821,2017-10-07T02:03:57Z
2017-10-07T00:04:08Z,42.805,6.029,13.2938,4.59962,2471.844,2017-10-07T02:05:32Z
2017-10-07T00:05:43Z,42.805,6.029,13.2939,4.59961,2471.784,2017-10-07T02:07:07Z
2017-10-07T00:07:17Z,42.805,6.029,13.2936,4.59961,2471.821,2017-10-07T02:08:41Z
2017-10-07T00:08:52Z,42.805,6.029,13.2939,4.59961,2471.821,2017-10-07T02:10:16Z
2017-10-07T00:10:27Z,42.805,6.029,13.2939,4.59960,2471.799,2017-10-07T02:11:51Z
2017-10-07T00:12:02Z,42.805,6.029,13.2937,4.59961,2471.784,2017-10-07T02:13:26Z
2017-10-07T00:13:37Z,42.805,6.029,13.2935,4.59961,2471.806,2017-10-07T02:15:01Z
2017-10-07T00:15:12Z,42.805,6.029,13.2936,4.59961,2471.799,2017-10-07T02:16:36Z
2017-10-07T00:16:47Z,42.805,6.029,13.2940,4.59961,2471.799,2017-10-07T02:18:10Z
2017-10-07T00:18:21Z,42.805,6.029,13.2937,4.59960,2471.799,2017-10-07T02:19:45Z
2017-10-07T00:19:56Z,42.805,6.029,13.2937,4.59963,2471.806,2017-10-07T02:21:20Z
2017-10-07T00:21:31Z,42.805,6.029,13.2939,4.59961,2471.806,2017-10-07T02:22:55Z
2017-10-07T00:23:06Z,42.805,6.029,13.2939,4.59961,2471.821,2017-10-07T02:24:30Z
2017-10-07T00:24:41Z,42.805,6.029,13.2940,4.59960,2471.784,2017-10-07T02:26:05Z
2017-10-07T00:26:15Z,42.805,6.029,13.2939,4.59964,2471.761,2017-10-07T02:27:39Z
2017-10-07T00:27:50Z,42.805,6.029,13.2935,4.59960,2471.799,2017-10-07T02:29:14Z
2017-10-07T00:29:25Z,42.805,6.029,13.2942,4.59961,2471.776,2017-10-07T02:30:49Z
2017-10-07T00:31:00Z,42.805,6.029,13.2942,4.59961,2471.739,2017-10-07T02:32:24Z
2017-10-07T00:32:35Z,42.805,6.029,13.2937,4.59961,2471.784,2017-10-07T02:33:59Z
2017-10-07T00:34:10Z,42.805,6.029,13.2940,4.59961,2471.784,2017-10-07T02:35:34Z
2017-10-07T00:35:44Z,42.805,6.029,13.2940,4.59960,2471.776,2017-10-07T02:37:08Z
2017-10-07T00:37:19Z,42.805,6.029,13.2939,4.59961,2471.784,2017-10-07T02:38:43Z
2017-10-07T00:38:54Z,42.805,6.029,13.2939,4.59961,2471.799,2017-10-07T02:40:18Z
2017-10-07T00:40:29Z,42.805,6.029,13.2940,4.59960,2471.799,2017-10-07T02:41:53Z
2017-10-07T00:42:04Z,42.805,6.029,13.2937,4.59960,2471.821,2017-10-07T02:43:28Z
2017-10-07T00:43:39Z,42.805,6.029,13.2942,4.59961,2471.784,2017-10-07T02:45:03Z
2017-10-07T00:45:13Z,42.805,6.029,13.2936,4.59961,2471.799,2017-10-07T02:46:37Z
2017-10-07T00:46:48Z,42.805,6.029,13.2942,4.59961,2471.739,2017-10-07T02:48:12Z
2017-10-07T00:48:23Z,42.805,6.029,13.2935,4.59961,2471.776,2017-10-07T02:49:47Z
2017-10-07T00:49:58Z,42.805,6.029,13.2940,4.59963,2471.761,2017-10-07T02:51:22Z
2017-10-07T00:51:33Z,42.805,6.029,13.2940,4.59962,2471.784,2017-10-07T02:52:57Z
2017-10-07T00:53:08Z,42.805,6.029,13.2937,4.59959,2471.784,2017-10-07T02:54:32Z
2017-10-07T00:54:42Z,42.805,6.029,13.2935,4.59960,2471.776,2017-10-07T02:56:06Z
2017-10-07T00:56:17Z,42.805,6.029,13.2938,4.59960,2471.776,2017-10-07T02:57:41Z
2017-10-07T00:57:52Z,42.805,6.029,13.2935,4.59960,2471.776,2017-10-07T02:59:16Z
2017-10-07T00:59:27Z,42.805,6.029,13.2942,4.59962,2471.776,2017-10-07T03:00:51Z
2017-10-07T01:01:02Z,42.805,6.029,13.2939,4.59961,2471.761,2017-10-07T03:02:26Z
2017-10-07T01:02:37Z,42.805,6.029,13.2940,4.59960,2471.784,2017-10-07T03:04:01Z
2017-10-07T01:04:11Z,42.805,6.029,13.2935,4.59961,2471.753,2017-10-07T03:05:35Z
2017-10-07T01:05:46Z,42.805,6.029,13.2940,4.59962,2471.753,2017-10-07T03:07:10Z
2017-10-07T01:07:21Z,42.805,6.029,13.2940,4.59961,2471.776,2017-10-07T03:08:45Z
2017-10-07T01:08:56Z,42.805,6.029,13.2940,4.59961,2471.761,2017-10-07T03:10:20Z
2017-10-07T01:10:31Z,42.805,6.029,13.2939,4.59961,2471.761,2017-10-07T03:11:55Z
2017-10-07T01:12:06Z,42.805,6.029,13.2940,4.59963,2471.776,2017-10-07T03:13:30Z
2017-10-07T01:13:40Z,42.805,6.029,13.2938,4.59961,2471.739,2017-10-07T03:15:04Z
2017-10-07T01:15:15Z,42.805,6.029,13.2939,4.59961,2471.776,2017-10-07T03:16:39Z
2017-10-07T01:16:50Z,42.805,6.029,13.2942,4.59962,2471.761,2017-10-07T03:18:14Z
2017-10-07T01:18:25Z,42.805,6.029,13.2939,4.59964,2471.776,2017-10-07T03:19:49Z
2017-10-07T01:20:00Z,42.805,6.029,13.2940,4.59963,2471.731,2017-10-07T03:21:24Z
2017-10-07T01:21:35Z,42.805,6.029,13.2938,4.59962,2471.761,2017-10-07T03:22:59Z
2017-10-07T01:23:09Z,42.805,6.029,13.2945,4.59961,2471.739,2017-10-07T03:24:33Z
2017-10-07T01:24:44Z,42.805,6.029,13.2944,4.59961,2471.753,2017-10-07T03:26:08Z
2017-10-07T01:26:19Z,42.805,6.029,13.2944,4.59961,2471.753,2017-10-07T03:27:43Z
2017-10-07T01:27:54Z,42.805,6.029,13.2934,4.59960,2471.753,2017-10-07T03:29:18Z
2017-10-07T01:29:29Z,42.805,6.029,13.2941,4.59961,2471.731,2017-10-07T03:30:53Z
2017-10-07T01:31:04Z,42.805,6.029,13.2943,4.59960,2471.761,2017-10-07T03:32:27Z
2017-10-07T01:32:38Z,42.805,6.029,13.2942,4.59961,2471.716,2017-10-07T03:34:02Z
2017-10-07T01:34:13Z,42.805,6.029,13.2936,4.59961,2471.753,2017-10-07T03:35:37Z
2017-10-07T01:35:48Z,42.805,6.029,13.2939,4.59961,2471.776,2017-10-07T03:37:12Z
2017-10-07T01:37:23Z,42.805,6.029,13.2940,4.59962,2471.776,2017-10-07T03:38:47Z
2017-10-07T01:38:58Z,42.805,6.029,13.2939,4.59961,2471.739,2017-10-07T03:40:22Z
2017-10-07T01:40:33Z,42.805,6.029,13.2940,4.59961,2471.753,2017-10-07T03:41:57Z
2017-10-07T01:42:07Z,42.805,6.029,13.2937,4.59961,2471.761,2017-10-07T03:43:31Z
2017-10-07T01:43:42Z,42.805,6.029,13.2941,4.59960,2471.731,2017-10-07T03:45:06Z
2017-10-07T01:45:17Z,42.805,6.029,13.2935,4.59961,2471.716,2017-10-07T03:46:41Z
2017-10-07T01:46:52Z,42.805,6.029,13.2936,4.59961,2471.731,2017-10-07T03:48:16Z
2017-10-07T01:48:27Z,42.805,6.029,13.2938,4.59961,2471.776,2017-10-07T03:49:51Z
2017-10-07T01:50:02Z,42.805,6.029,13.2936,4.59961,2471.731,2017-10-07T03:51:25Z
2017-10-07T01:51:36Z,42.805,6.029,13.2936,4.59961,2471.731,2017-10-07T03:53:00Z
2017-10-07T01:53:11Z,42.805,6.029,13.2941,4.59966,2471.716,2017-10-07T03:54:35Z
2017-10-07T01:54:46Z,42.805,6.029,13.2940,4.59967,2471.731,2017-10-07T03:56:10Z
2017-10-07T01:56:21Z,42.805,6.029,13.2932,4.59961,2471.753,2017-10-07T03:57:45Z
2017-10-07T01:57:56Z,42.805,6.029,13.2936,4.59961,2471.731,2017-10-07T03:59:20Z
2017-10-07T01:59:31Z,42.805,6.029,13.2933,4.59960,2471.739,2017-10-07T04:00:54Z
2017-10-07T02:01:05Z,42.805,6.029,13.2939,4.59960,2471.753,2017-10-07T04:02:29Z
2017-10-07T02:02:40Z,42.805,6.029,13.2936,4.59960,2471.753,2017-10-07T04:04:04Z
2017-10-07T02:04:15Z,42.805,6.029,13.2940,4.59960,2471.716,2017-10-07T04:05:39Z
2017-10-07T02:05:50Z,42.805,6.029,13.2936,4.59960,2471.731,2017-10-07T04:07:14Z
2017-10-07T02:07:25Z,42.805,6.029,13.2939,4.59961,2471.753,2017-10-07T04:08:49Z
2017-10-07T02:09:00Z,42.805,6.029,13.2939,4.59961,2471.716,2017-10-07T04:10:23Z
2017-10-07T02:10:34Z,42.805,6.029,13.2941,4.59962,2471.731,2017-10-07T04:11:58Z
2017-10-07T02:12:09Z,42.805,6.029,13.2943,4.59961,2471.776,2017-10-07T04:13:33Z
2017-10-07T02:13:44Z,42.805,6.029,13.2939,4.59961,2471.753,2017-10-07T04:15:08Z
2017-10-07T02:15:19Z,42.805,6.029,13.2942,4.59962,2471.716,2017-10-07T04:16:43Z
2017-10-07T02:16:54Z,42.805,6.029,13.2937,4.59960,2471.731,2017-10-07T04:18:18Z
2017-10-07T02:18:29Z,42.805,6.029,13.2940,4.59961,2471.731,2017-10-07T04:19:52Z
2017-10-07T02:20:03Z,42.805,6.029,13.2937,4.59960,2471.739,2017-10-07T04:21:27Z
2017-10-07T02:21:38Z,42.805,6.029,13.2933,4.59961,2471.753,2017-10-07T04:23:02Z
2017-10-07T02:23:13Z,42.805,6.029,13.2937,4.59961,2471.731,2017-10-07T04:24:37Z
2017-10-07T02:24:48Z,42.805,6.029,13.2938,4.59962,2471.731,2017-10-07T04:26:12Z
2017-10-07T02:26:23Z,42.805,6.029,13.2937,4.59961,2471.731,2017-10-07T04:27:47Z
2017-10-07T02:27:58Z,42.805,6.029,13.2938,4.59960,2471.731,2017-10-07T04:29:21Z
2017-10-07T02:29:32Z,42.805,6.029,13.2937,4.59964,2471.753,2017-10-07T04:30:56Z
2017-10-07T02:31:07Z,42.805,6.029,13.2940,4.59961,2471.731,2017-10-07T04:32:31Z
2017-10-07T02:32:42Z,42.805,6.029,13.2940,4.59960,2471.753,2017-10-07T04:34:06Z
2017-10-07T02:34:17Z,42.805,6.029,13.2939,4.59962,2471.739,2017-10-07T04:35:41Z
2017-10-07T02:35:52Z,42.805,6.029,13.2938,4.59962,2471.739,2017-10-07T04:37:16Z
2017-10-07T02:37:26Z,42.805,6.029,13.2940,4.59960,2471.731,2017-10-07T04:38:50Z
2017-10-07T02:39:01Z,42.805,6.029,13.2941,4.59960,2471.731,2017-10-07T04:40:25Z
2017-10-07T02:40:36Z,42.805,6.029,13.2938,4.59960,2471.753,2017-10-07T04:42:00Z
2017-10-07T02:42:11Z,42.805,6.029,13.2941,4.59961,2471.731,2017-10-07T04:43:35Z
2017-10-07T02:43:46Z,42.805,6.029,13.2938,4.59960,2471.739,2017-10-07T04:45:10Z
2017-10-07T02:45:21Z,42.805,6.029,13.2935,4.59959,2471.716,2017-10-07T04:46:45Z
2017-10-07T02:46:55Z,42.805,6.029,13.2935,4.59959,2471.753,2017-10-07T04:48:19Z
2017-10-07T02:48:30Z,42.805,6.029,13.2935,4.59959,2471.693,2017-10-07T04:49:54Z
2017-10-07T02:50:05Z,42.805,6.029,13.2938,4.59960,2471.753,2017-10-07T04:51:29Z
2017-10-07T02:51:40Z,42.805,6.029,13.2937,4.59961,2471.753,2017-10-07T04:53:04Z
2017-10-07T02:53:15Z,42.805,6.029,13.2939,4.59961,2471.731,2017-10-07T04:54:39Z
2017-10-07T02:54:50Z,42.805,6.029,13.2938,4.59961,2471.753,2017-10-07T04:56:14Z
2017-10-07T02:56:24Z,42.805,6.029,13.2935,4.59961,2471.776,2017-10-07T04:57:48Z
2017-10-07T02:57:59Z,42.805,6.029,13.2936,4.59964,2471.753,2017-10-07T04:59:23Z
2017-10-07T02:59:34Z,42.805,6.029,13.2939,4.59961,2471.731,2017-10-07T05:00:58Z
2017-10-07T03:01:09Z,42.805,6.029,13.2935,4.59961,2471.753,2017-10-07T05:02:33Z
2017-10-07T03:02:44Z,42.805,6.029,13.2937,4.59961,2471.731,2017-10-07T05:04:08Z
2017-10-07T03:04:19Z,42.805,6.029,13.2936,4.59962,2471.731,2017-10-07T05:05:43Z
2017-10-07T03:05:53Z,42.805,6.029,13.2936,4.59963,2471.716,2017-10-07T05:07:17Z
2017-10-07T03:07:28Z,42.805,6.029,13.2933,4.59961,2471.753,2017-10-07T05:08:52Z
2017-10-07T03:09:03Z,42.805,6.029,13.2937,4.59963,2471.776,2017-10-07T05:10:27Z
2017-10-07T03:10:38Z,42.805,6.029,13.2939,4.59962,2471.739,2017-10-07T05:12:02Z
2017-10-07T03:12:13Z,42.805,6.029,13.2940,4.59960,2471.739,2017-10-07T05:13:37Z
2017-10-07T03:13:48Z,42.805,6.029,13.2936,4.59962,2471.753,2017-10-07T05:15:12Z
2017-10-07T03:15:22Z,42.805,6.029,13.2938,4.59963,2471.761,2017-10-07T05:16:46Z
2017-10-07T03:16:57Z,42.805,6.029,13.2936,4.59961,2471.799,2017-10-07T05:18:21Z
2017-10-07T03:18:32Z,42.805,6.029,13.2943,4.59963,2471.761,2017-10-07T05:19:56Z
2017-10-07T03:20:07Z,42.805,6.029,13.2940,4.59961,2471.716,2017-10-07T05:21:31Z
2017-10-07T03:21:42Z,42.805,6.029,13.2937,4.59961,2471.753,2017-10-07T05:23:06Z
2017-10-07T03:23:17Z,42.805,6.029,13.2937,4.59961,2471.776,2017-10-07T05:24:41Z
2017-10-07T03:24:51Z,42.805,6.029,13.2935,4.59961,2471.776,2017-10-07T05:26:15Z
2017-10-07T03:26:26Z,42.805,6.029,13.2940,4.59961,2471.776,2017-10-07T05:27:50Z
2017-10-07T03:28:01Z,42.805,6.029,13.2938,4.59961,2471.739,2017-10-07T05:29:25Z
2017-10-07T03:29:36Z,42.805,6.029,13.2940,4.59962,2471.739,2017-10-07T05:31:00Z
2017-10-07T03:31:11Z,42.805,6.029,13.2938,4.59964,2471.731,2017-10-07T05:32:35Z
2017-10-07T03:32:46Z,42.805,6.029,13.2936,4.59961,2471.716,2017-10-07T05:34:09Z
2017-10-07T03:34:20Z,42.805,6.029,13.2938,4.59961,2471.776,2017-10-07T05:35:44Z
2017-10-07T03:35:55Z,42.805,6.029,13.2937,4.59962,2471.761,2017-10-07T05:37:19Z
2017-10-07T03:37:30Z,42.805,6.029,13.2935,4.59960,2471.761,2017-10-07T05:38:54Z
2017-10-07T03:39:05Z,42.805,6.029,13.2938,4.59961,2471.761,2017-10-07T05:40:29Z
2017-10-07T03:40:40Z,42.805,6.029,13.2939,4.59962,2471.761,2017-10-07T05:42:04Z
2017-10-07T03:42:15Z,42.805,6.029,13.2943,4.59962,2471.776,2017-10-07T05:43:38Z
2017-10-07T03:43:49Z,42.805,6.029,13.2939,4.59962,2471.776,2017-10-07T05:45:13Z
2017-10-07T03:45:24Z,42.805,6.029,13.2940,4.59961,2471.784,2017-10-07T05:46:48Z
2017-10-07T03:46:59Z,42.805,6.029,13.2938,4.59960,2471.761,2017-10-07T05:48:23Z
2017-10-07T03:48:34Z,42.805,6.029,13.2937,4.59961,2471.776,2017-10-07T05:49:58Z
2017-10-07T03:50:09Z,42.805,6.029,13.2935,4.59959,2471.753,2017-10-07T05:51:33Z
2017-10-07T03:51:44Z,42.805,6.029,13.2935,4.59960,2471.753,2017-10-07T05:53:07Z
2017-10-07T03:53:18Z,42.805,6.029,13.2940,4.59961,2471.739,2017-10-07T05:54:42Z
2017-10-07T03:54:53Z,42.805,6.029,13.2939,4.59960,2471.776,2017-10-07T05:56:17Z
2017-10-07T03:56:28Z,42.805,6.029,13.2937,4.59961,2471.799,2017-10-07T05:57:52Z
2017-10-07T03:58:03Z,42.805,6.029,13.2936,4.59961,2471.753,2017-10-07T05:59:27Z
2017-10-07T03:59:38Z,42.805,6.029,13.2935,4.59960,2471.776,2017-10-07T06:01:02Z
2017-10-07T04:01:13Z,42.805,6.029,13.2938,4.59961,2471.761,2017-10-07T06:02:36Z
2017-10-07T04:02:47Z,42.805,6.029,13.2940,4.59961,2471.776,2017-10-07T06:04:11Z
2017-10-07T04:04:22Z,42.805,6.029,13.2943,4.59962,2471.776,2017-10-07T06:05:46Z
2017-10-07T04:05:57Z,42.805,6.029,13.2938,4.59961,2471.761,2017-10-07T06:07:21Z
2017-10-07T04:07:32Z,42.805,6.029,13.2937,4.59961,2471.776,2017-10-07T06:08:56Z
2017-10-07T04:09:07Z,42.805,6.029,13.2936,4.59963,2471.784,2017-10-07T06:10:31Z
2017-10-07T04:10:41Z,42.805,6.029,13.2938,4.59961,2471.761,2017-10-07T06:12:05Z
2017-10-07T04:12:16Z,42.805,6.029,13.2938,4.59961,2471.799,2017-10-07T06:13:40Z
2017-10-07T04:13:51Z,42.805,6.029,13.2940,4.59961,2471.784,2017-10-07T06:15:15Z
2017-10-07T04:15:26Z,42.805,6.029,13.2940,4.59962,2471.821,2017-10-07T06:16:50Z
2017-10-07T04:17:01Z,42.805,6.029,13.2939,4.59961,2471.799,2017-10-07T06:18:25Z
2017-10-07T04:18:36Z,42.805,6.029,13.2939,4.59961,2471.821,2017-10-07T06:20:00Z
2017-10-07T04:20:10Z,42.805,6.029,13.2938,4.59962,2471.784,2017-10-07T06:21:34Z
2017-10-07T04:21:45Z,42.805,6.029,13.2940,4.59961,2471.799,2017-10-07T06:23:09Z
2017-10-07T04:23:20Z,42.805,6.029,13.2940,4.59961,2471.799,2017-10-07T06:24:44Z
2017-10-07T04:24:55Z,42.805,6.029,13.2943,4.59962,2471.821,2017-10-07T06:26:19Z
2017-10-07T04:26:30Z,42.805,6.029,13.2935,4.59961,2471.776,2017-10-07T06:27:54Z
2017-10-07T04:28:05Z,42.805,6.029,13.2937,4.59961,2471.821,2017-10-07T06:29:29Z
2017-10-07T04:29:39Z,42.805,6.029,13.2939,4.59961,2471.799,2017-10-07T06:31:03Z
2017-10-07T04:31:14Z,42.805,6.029,13.2940,4.59962,2471.799,2017-10-07T06:32:38Z
2017-10-07T04:32:49Z,42.805,6.029,13.2939,4.59963,2471.821,2017-10-07T06:34:13Z
2017-10-07T04:34:24Z,42.805,6.029,13.2939,4.59962,2471.799,2017-10-07T06:35:48Z
2017-10-07T04:35:59Z,42.805,6.029,13.2940,4.59960,2471.799,2017-10-07T06:37:23Z
2017-10-07T04:37:34Z,42.805,6.029,13.2937,4.59963,2471.806,2017-10-07T06:38:58Z
2017-10-07T04:39:08Z,42.805,6.029,13.2936,4.59962,2471.784,2017-10-07T06:40:32Z
2017-10-07T04:40:43Z,42.805,6.029,13.2935,4.59966,2471.866,2017-10-07T06:42:07Z
2017-10-07T04:42:18Z,42.805,6.029,13.2939,4.59964,2471.821,2017-10-07T06:43:42Z
2017-10-07T04:43:53Z,42.805,6.029,13.2939,4.59961,2471.821,2017-10-07T06:45:17Z
2017-10-07T04:45:28Z,42.805,6.029,13.2940,4.59962,2471.799,2017-10-07T06:46:52Z
2017-10-07T04:47:03Z,42.805,6.029,13.2936,4.59961,2471.844,2017-10-07T06:48:27Z
2017-10-07T04:48:37Z,42.805,6.029,13.2939,4.59962,2471.821,2017-10-07T06:50:01Z
2017-10-07T04:50:12Z,42.805,6.029,13.2943,4.59963,2471.844,2017-10-07T06:51:36Z
2017-10-07T04:51:47Z,42.805,6.029,13.2936,4.59961,2471.806,2017-10-07T06:53:11Z
2017-10-07T04:53:22Z,42.805,6.029,13.2942,4.59961,2471.821,2017-10-07T06:54:46Z
2017-10-07T04:54:57Z,42.805,6.029,13.2937,4.59963,2471.806,2017-10-07T06:56:21Z
2017-10-07T04:56:32Z,42.805,6.029,13.2940,4.59963,2471.806,2017-10-07T06:57:56Z
2017-10-07T04:58:06Z,42.805,6.029,13.2939,4.59962,2471.844,2017-10-07T06:59:30Z
2017-10-07T04:59:41Z,42.805,6.029,13.2941,4.59963,2471.806,2017-10-07T07:01:05Z
2017-10-07T05:01:16Z,42.805,6.029,13.2941,4.59963,2471.806,2017-10-07T07:02:40Z
2017-10-07T05:02:51Z,42.805,6.029,13.2941,4.59964,2471.829,2017-10-07T07:04:15Z
2017-10-07T05:04:26Z,42.805,6.029,13.2939,4.59964,2471.866,2017-10-07T07:05:50Z
2017-10-07T05:06:01Z,42.805,6.029,13.2942,4.59963,2471.852,2017-10-07T07:07:25Z
2017-10-07T05:07:35Z,42.805,6.029,13.2939,4.59961,2471.844,2017-10-07T07:08:59Z
2017-10-07T05:09:10Z,42.805,6.029,13.2941,4.59964,2471.866,2017-10-07T07:10:34Z
2017-10-07T05:10:45Z,42.805,6.029,13.2939,4.59964,2471.829,2017-10-07T07:12:09Z
2017-10-07T05:12:20Z,42.805,6.029,13.2939,4.59961,2471.829,2017-10-07T07:13:44Z
2017-10-07T05:13:55Z,42.805,6.029,13.2939,4.59962,2471.866,2017-10-07T07:15:19Z
2017-10-07T05:15:30Z,42.805,6.029,13.2934,4.59963,2471.844,2017-10-07T07:16:54Z
2017-10-07T05:17:04Z,42.805,6.029,13.2938,4.59964,2471.829,2017-10-07T07:18:28Z
2017-10-07T05:18:39Z,42.805,6.029,13.2937,4.59964,2471.866,2017-10-07T07:20:03Z
2017-10-07T05:20:14Z,42.805,6.029,13.2938,4.59963,2471.852,2017-10-07T07:21:38Z
2017-10-07T05:21:49Z,42.805,6.029,13.2939,4.59965,2471.866,2017-10-07T07:23:13Z
2017-10-07T05:23:24Z,42.805,6.029,13.2935,4.59964,2471.889,2017-10-07T07:24:48Z
2017-10-07T05:24:59Z,42.805,6.029,13.2940,4.59964,2471.852,2017-10-07T07:26:22Z
2017-10-07T05:26:33Z,42.805,6.029,13.2937,4.59964,2471.874,2017-10-07T07:27:57Z
2017-10-07T05:28:08Z,42.805,6.029,13.2939,4.59968,2471.889,2017-10-07T07:29:32Z
2017-10-07T05:29:43Z,42.805,6.029,13.2938,4.59967,2471.889,2017-10-07T07:31:07Z
2017-10-07T05:31:18Z,42.805,6.029,13.2939,4.59964,2471.912,2017-10-07T07:32:42Z
2017-10-07T05:32:53Z,42.805,6.029,13.2942,4.59964,2471.852,2017-10-07T07:34:17Z
2017-10-07T05:34:28Z,42.805,6.029,13.2943,4.59966,2471.866,2017-10-07T07:35:51Z
2017-10-07T05:36:02Z,42.805,6.029,13.2940,4.59968,2471.874,2017-10-07T07:37:26Z
2017-10-07T05:37:37Z,42.805,6.029,13.2940,4.59963,2471.889,2017-10-07T07:39:01Z
2017-10-07T05:39:12Z,42.805,6.029,13.2939,4.59963,2471.852,2017-10-07T07:40:36Z
2017-10-07T05:40:47Z,42.805,6.029,13.2940,4.59964,2471.874,2017-10-07T07:42:11Z
2017-10-07T05:42:22Z,42.805,6.029,13.2940,4.59963,2471.889,2017-10-07T07:43:46Z
2017-10-07T05:43:57Z,42.805,6.029,13.2939,4.59963,2471.874,2017-10-07T07:45:20Z
2017-10-07T05:45:31Z,42.805,6.029,13.2938,4.59963,2471.912,2017-10-07T07:46:55Z
2017-10-07T05:47:06Z,42.805,6.029,13.2938,4.59964,2471.897,2017-10-07T07:48:30Z
2017-10-07T05:48:41Z,42.805,6.029,13.2940,4.59964,2471.874,2017-10-07T07:50:05Z
2017-10-07T05:50:16Z,42.805,6.029,13.2937,4.59963,2471.889,2017-10-07T07:51:40Z
2017-10-07T05:51:51Z,42.805,6.029,13.2939,4.59971,2471.897,2017-10-07T07:53:15Z
2017-10-07T05:53:26Z,42.805,6.029,13.2932,4.59963,2471.934,2017-10-07T07:54:49Z
2017-10-07T05:55:00Z,42.805,6.029,13.2938,4.59965,2471.912,2017-10-07T07:56:24Z
2017-10-07T05:56:35Z,42.805,6.029,13.2933,4.59964,2471.889,2017-10-07T07:57:59Z
2017-10-07T05:58:10Z,42.805,6.029,13.2936,4.59962,2471.912,2017-10-07T07:59:34Z
2017-10-07T05:59:45Z,42.805,6.029,13.2935,4.59964,2471.897,2017-10-07T08:01:09Z
2017-10-07T06:01:20Z,42.805,6.029,13.2938,4.59962,2471.897,2017-10-07T08:02:44Z
2017-10-07T06:02:55Z,42.805,6.029,13.2939,4.59964,2471.912,2017-10-07T08:04:18Z
2017-10-07T06:04:29Z,42.805,6.029,13.2941,4.59963,2471.889,2017-10-07T08:05:53Z
2017-10-07T06:06:04Z,42.805,6.029,13.2938,4.59963,2471.934,2017-10-07T08:07:28Z
2017-10-07T06:07:39Z,42.805,6.029,13.2939,4.59964,2471.912,2017-10-07T08:09:03Z
2017-10-07T06:09:14Z,42.805,6.029,13.2938,4.59964,2471.897,2017-10-07T08:10:38Z
2017-10-07T06:10:49Z,42.805,6.029,13.2938,4.59964,2471.897,2017-10-07T08:12:13Z
2017-10-07T06:12:23Z,42.805,6.029,13.2936,4.59964,2471.934,2017-10-07T08:13:47Z
2017-10-07T06:13:58Z,42.805,6.029,13.2943,4.59964,2471.919,2017-10-07T08:15:22Z
2017-10-07T06:15:33Z,42.805,6.029,13.2939,4.59966,2471.919,2017-10-07T08:16:57Z
2017-10-07T06:17:08Z,42.805,6.029,13.2942,4.59964,2471.934,2017-10-07T08:18:32Z
2017-10-07T06:18:43Z,42.805,6.029,13.2937,4.59964,2471.964,2017-10-07T08:20:07Z
2017-10-07T06:20:18Z,42.805,6.029,13.2940,4.59962,2471.934,2017-10-07T08:21:42Z
2017-10-07T06:21:52Z,42.805,6.029,13.2943,4.59965,2471.942,2017-10-07T08:23:16Z
2017-10-07T06:23:27Z,42.805,6.029,13.2941,4.59964,2471.942,2017-10-07T08:24:51Z
2017-10-07T06:25:02Z,42.805,6.029,13.2940,4.59965,2471.979,2017-10-07T08:26:26Z
2017-10-07T06:26:37Z,42.805,6.029,13.2939,4.59965,2471.934,2017-10-07T08:28:01Z
2017-10-07T06:28:12Z,42.805,6.029,13.2940,4.59965,2471.934,2017-10-07T08:29:36Z
2017-10-07T06:29:47Z,42.805,6.029,13.2942,4.59963,2471.934,2017-10-07T08:31:11Z
2017-10-07T06:31:21Z,42.805,6.029,13.2940,4.59963,2471.919,2017-10-07T08:32:45Z
2017-10-07T06:32:56Z,42.805,6.029,13.2938,4.59964,2471.934,2017-10-07T08:34:20Z
2017-10-07T06:34:31Z,42.805,6.029,13.2940,4.59963,2471.942,2017-10-07T08:35:55Z
2017-10-07T06:36:06Z,42.805,6.029,13.2941,4.59963,2471.942,2017-10-07T08:37:30Z
2017-10-07T06:37:41Z,42.805,6.029,13.2940,4.59964,2471.942,2017-10-07T08:39:05Z
2017-10-07T06:39:16Z,42.805,6.029,13.2940,4.59962,2471.957,2017-10-07T08:40:40Z
2017-10-07T06:40:50Z,42.805,6.029,13.2941,4.59964,2471.957,2017-10-07T08:42:14Z
2017-10-07T06:42:25Z,42.805,6.029,13.2941,4.59964,2471.942,2017-10-07T08:43:49Z
2017-10-07T06:44:00Z,42.805,6.029,13.2940,4.59964,2471.942,2017-10-07T08:45:24Z
2017-10-07T06:45:35Z,42.805,6.029,13.2936,4.59964,2471.979,2017-10-07T08:46:59Z
2017-10-07T06:47:10Z,42.805,6.029,13.2940,4.59964,2471.964,2017-10-07T08:48:34Z
2017-10-07T06:48:45Z,42.805,6.029,13.2936,4.59964,2471.942,2017-10-07T08:50:09Z
2017-10-07T06:50:19Z,42.805,6.029,13.2941,4.59965,2471.957,2017-10-07T08:51:43Z
2017-10-07T06:51:54Z,42.805,6.029,13.2939,4.59964,2471.957,2017-10-07T08:53:18Z
2017-10-07T06:53:29Z,42.805,6.029,13.2939,4.59965,2471.979,2017-10-07T08:54:53Z
2017-10-07T06:55:04Z,42.805,6.029,13.2937,4.59965,2471.964,2017-10-07T08:56:28Z
2017-10-07T06:56:39Z,42.805,6.029,13.2938,4.59964,2471.957,2017-10-07T08:58:03Z
2017-10-07T06:58:14Z,42.805,6.029,13.2941,4.59963,2471.979,2017-10-07T08:59:38Z
2017-10-07T06:59:48Z,42.805,6.029,13.2939,4.59964,2471.979,2017-10-07T09:01:12Z
2017-10-07T07:01:23Z,42.805,6.029,13.2940,4.59964,2471.957,2017-10-07T09:02:47Z
2017-10-07T07:02:58Z,42.805,6.029,13.2937,4.59965,2471.979,2017-10-07T09:04:22Z
2017-10-07T07:04:33Z,42.805,6.029,13.2939,4.59968,2471.979,2017-10-07T09:05:57Z
2017-10-07T07:06:08Z,42.805,6.029,13.2940,4.59965,2472.01,2017-10-07T09:07:32Z
2017-10-07T07:07:43Z,42.805,6.029,13.2943,4.59963,2471.957,2017-10-07T09:09:07Z
2017-10-07T07:09:17Z,42.805,6.029,13.2937,4.59964,2471.964,2017-10-07T09:10:41Z
2017-10-07T07:10:52Z,42.805,6.029,13.2940,4.59965,2471.979,2017-10-07T09:12:16Z
2017-10-07T07:12:27Z,42.805,6.029,13.2940,4.59965,2471.979,2017-10-07T09:13:51Z
2017-10-07T07:14:02Z,42.805,6.029,13.2939,4.59968,2471.957,2017-10-07T09:15:26Z
2017-10-07T07:15:37Z,42.805,6.029,13.2939,4.59967,2471.957,2017-10-07T09:17:01Z
2017-10-07T07:17:12Z,42.805,6.029,13.2939,4.59964,2471.979,2017-10-07T09:18:35Z
2017-10-07T07:18:46Z,42.805,6.029,13.2936,4.59964,2471.979,2017-10-07T09:20:10Z
2017-10-07T07:20:21Z,42.805,6.029,13.2938,4.59964,2472.002,2017-10-07T09:21:45Z
2017-10-07T07:21:56Z,42.805,6.029,13.2938,4.59964,2472.002,2017-10-07T09:23:20Z
2017-10-07T07:23:31Z,42.805,6.029,13.2939,4.59964,2471.934,2017-10-07T09:24:55Z
2017-10-07T07:25:06Z,42.805,6.029,13.2939,4.59964,2471.964,2017-10-07T09:26:30Z
2017-10-07T07:26:41Z,42.805,6.029,13.2940,4.59970,2471.964,2017-10-07T09:28:05Z
2017-10-07T07:28:15Z,42.805,6.029,13.2938,4.59965,2472.002,2017-10-07T09:29:39Z
2017-10-07T07:29:50Z,42.805,6.029,13.2940,4.59964,2471.964,2017-10-07T09:31:14Z
2017-10-07T07:31:25Z,42.805,6.029,13.2940,4.59965,2471.987,2017-10-07T09:32:49Z
2017-10-07T07:33:00Z,42.805,6.029,13.2939,4.59964,2471.987,2017-10-07T09:34:24Z
2017-10-07T07:34:35Z,42.805,6.029,13.2943,4.59964,2471.987,2017-10-07T09:35:59Z
2017-10-07T07:36:10Z,42.805,6.029,13.2941,4.59965,2471.979,2017-10-07T09:37:33Z
2017-10-07T07:37:44Z,42.805,6.029,13.2942,4.59965,2471.964,2017-10-07T09:39:08Z
2017-10-07T07:39:19Z,42.805,6.029,13.2941,4.59966,2472.002,2017-10-07T09:40:43Z
2017-10-07T07:40:54Z,42.805,6.029,13.2943,4.59964,2471.964,2017-10-07T09:42:18Z
2017-10-07T07:42:29Z,42.805,6.029,13.2938,4.59964,2471.964,2017-10-07T09:43:53Z
2017-10-07T07:44:04Z,42.805,6.029,13.2938,4.59965,2471.942,2017-10-07T09:45:28Z
2017-10-07T07:45:39Z,42.805,6.029,13.2938,4.59967,2471.964,2017-10-07T09:47:02Z